Location: *
(55.5817°S, 142.4781°W)
Time: 07:31:04
(UTC+00:00)

Cosmos 1818 - Pass Details

Date: 29 April 2025
Orbit: 775 x 796 km, 65.0° (Epoch: 23 May)

Event Time Altitude Azimuth Distance (km) Brightness Sun altitude
Exits shadow 13:06:38 53° 119° (ESE) 966 4.2 -31.6°
Drops below altitude 10° 13:11:20 10° 68° (ENE) 2,353 6.5 -31.0°
Sets 13:13:47 0° 63° (ENE) 3,279 7.3 -30.6°
